This is the latest recevied weather packets stored in our database for station/object VK2BLR. If no packets are shown the sender has not sent any weather packets the latest 10 day(s).
| Time | Temp. | Humidity | Pressure | Rain* | Wind** | Luminosity | Snow |
|---|---|---|---|---|---|---|---|
| 1777378880 | 13.89° C | 51% | 1023.9 hPa | 0 mm | - | - | - |
| 1777377980 | 14.44° C | 51% | 1023.9 hPa | 0 mm | - | - | - |
| 1777377080 | 14.44° C | 51% | 1023.8 hPa | 0 mm | - | - | - |
| 1777376180 | 14.44° C | 50% | 1024.1 hPa | 0 mm | - | - | - |
| 1777375280 | 15° C | 50% | 1023.9 hPa | 0 mm | - | - | - |
| 1777374381 | 15.56° C | 50% | 1023.9 hPa | 0 mm | - | - | - |
| 1777373480 | 15.56° C | 49% | 1024.2 hPa | 0 mm | - | - | - |
| 1777372581 | 16.11° C | 48% | 1024.3 hPa | 0 mm | - | - | - |
| 1777371681 | 16.11° C | 47% | 1024.2 hPa | 0 mm | - | - | - |
| 1777370780 | 16.67° C | 46% | 1024.2 hPa | 0 mm | - | - | - |
| 1777369879 | 17.22° C | 45% | 1024.2 hPa | 0 mm | - | - | - |
| 1777368981 | 17.78° C | 41% | 1023.9 hPa | 0 mm | - | - | - |
| 1777368080 | 18.33° C | 41% | 1024.1 hPa | 0 mm | - | - | - |
| 1777367179 | 18.33° C | 41% | 1023.8 hPa | 0 mm | - | - | - |
| 1777366281 | 18.89° C | 40% | 1023.7 hPa | 0 mm | - | - | - |
| 1777365380 | 19.44° C | 38% | 1023.4 hPa | 0 mm | - | - | - |
| 1777364479 | 20.56° C | 36% | 1023.3 hPa | 0 mm | - | - | - |
| 1777363579 | 21.11° C | 34% | 1023.1 hPa | 0 mm | - | - | - |
| 1777362681 | 21.67° C | 33% | 1022.9 hPa | 0 mm | - | - | - |
| 1777361781 | 22.22° C | 31% | 1022.7 hPa | 0 mm | - | - | - |
| 1777360880 | 22.78° C | 28% | 1022.8 hPa | 0 mm | - | - | - |
| 1777359980 | 23.33° C | 27% | 1022.6 hPa | 0 mm | - | - | - |
| 1777359080 | 23.89° C | 26% | 1022.7 hPa | 0 mm | - | - | - |
| 1777358180 | 24.44° C | 26% | 1022.5 hPa | 0 mm | - | - | - |
| 1777357280 | 25° C | 25% | 1022.6 hPa | 0 mm | - | - | - |
* Rain latest hour (hover to see other rain measurements)
** Current wind speed in m/s (hover to see current wind gust speed)